Location: Ferintosh
(52.7647°N, 112.9692°W)
Time: 13:11:50
(UTC+00:00)

Transit 2A - Pass Details

Date: 27 May 2024
Orbit: 593 x 959 km, 66.7° (Epoch: 14 June)

Event Time Altitude Azimuth Distance (km) Brightness Sun altitude
Rises 05:14:30 0° 205° (SSW) 2,952 8.7 -10.3°
Reaches altitude 10° 05:16:42 10° 202° (SSW) 2,089 7.9 -10.5°
Maximum altitude 05:21:22 61° 123° (ESE) 811 5.9 -10.8°
Drops below altitude 10° 05:26:35 10° 44° (NE) 2,331 8.7 -11.2°
Sets 05:29:09 0° 41° (NE) 3,326 9.6 -11.4°
